DateTimeUTC,F1_A11,F1_S11,BsB_S11,BsG_S11,BsR_S11,BbsB_S11,BbsG_S11,BbsR_S11,BaB_A11,BaG_A11,BaR_A11,Tu_S11,T_S11,Uu_S11,U_S11,P_S11,T1_A11
2021-02-08T16:00:00Z,00000200,21000000,,,,,,,-000.31,0000.19,0000.22,16.7,23.7,,00.0,0655.0,31.0
2021-02-08T16:01:00Z,00000200,21000000,,,,,,,-000.10,-000.21,-000.38,16.7,23.8,,00.0,0655.0,31.0
2021-02-08T16:02:00Z,00000200,21000000,,,,,,,-000.03,-000.07,-000.16,16.7,23.8,,00.0,0655.0,31.0
2021-02-08T16:03:00Z,00000200,61000000,,,,,,,-000.16,-000.49,-000.06,16.7,23.8,,00.0,0655.0,31.0
2021-02-08T16:04:00Z,00000200,41000000,-000.27,0000.28,0000.04,0000.40,0000.05,-000.17,-000.27,-000.10,0000.03,16.9,23.6,,00.0,0655.9,31.0
2021-02-08T16:05:00Z,00000200,01000000,0000.30,0000.14,0000.23,0000.21,-000.10,-000.02,-000.33,-000.30,-000.19,17.0,23.6,,00.0,0656.0,31.0
2021-02-08T16:06:00Z,00000200,01000000,0000.10,0000.21,0000.29,-000.05,-000.30,0000.15,-000.09,-000.10,-000.15,17.0,23.6,,00.0,0656.0,31.0
2021-02-08T16:07:00Z,00000200,01000000,-000.05,0000.19,0000.13,0000.32,-000.02,-000.21,-000.01,-000.10,0000.03,17.0,23.5,,00.0,0656.0,31.0
2021-02-08T16:08:00Z,00000200,01000000,-000.59,0000.23,0000.13,0000.15,-000.02,-000.11,-000.32,-000.00,-000.29,16.9,23.5,,00.0,0656.1,31.0
2021-02-08T16:09:00Z,00000200,01000000,0000.12,0000.26,0000.17,-000.02,-000.07,0000.12,-000.20,-000.21,-000.21,16.9,23.5,,00.0,0656.1,31.0
2021-02-08T16:10:00Z,00000200,01000000,0000.18,0000.41,0000.13,-000.09,0000.07,0000.05,-000.24,-000.10,0000.01,16.9,23.5,,00.0,0656.1,31.0
2021-02-08T16:11:00Z,00000200,01000000,0000.09,0000.34,0000.17,0000.32,-000.30,-000.02,-000.54,-000.33,0000.01,16.9,23.5,,00.0,0656.1,31.0
2021-02-08T16:12:00Z,00000200,01000000,-000.07,0000.29,0000.09,0000.45,0000.12,-000.05,0000.23,0000.04,-000.43,16.9,23.5,,00.0,0656.1,31.0
2021-02-08T16:13:00Z,00000200,01000000,0000.65,0000.04,-000.02,0000.05,-000.05,0000.06,-000.24,-000.18,0000.09,16.9,23.5,,00.0,0656.2,31.0
2021-02-08T16:14:00Z,00000200,01000000,0000.75,-000.08,0000.14,0000.46,-000.19,-000.11,-000.34,-000.24,-000.26,16.9,23.4,,00.0,0656.2,31.0
2021-02-08T16:15:00Z,00000200,01000000,0000.42,-000.13,0000.12,-000.13,-000.23,0000.11,-000.54,-000.34,-000.06,16.9,23.4,,00.0,0656.3,31.0
2021-02-08T16:16:00Z,00000200,01000000,-000.54,0000.21,0000.09,0000.40,-000.13,-000.10,-000.66,-001.18,-000.64,16.9,23.5,,00.0,0656.4,31.0
2021-02-08T16:17:00Z,00000200,01000000,0000.60,0000.31,0000.31,0000.61,0000.18,0000.10,-000.70,-000.52,-000.36,17.0,23.5,,00.0,0656.4,31.0
2021-02-08T16:18:00Z,00000200,01000000,-000.10,-000.15,0000.20,0000.45,-000.10,0000.12,-000.55,-000.08,-000.77,17.0,23.5,,00.0,0656.5,31.0
2021-02-08T16:19:00Z,00000200,01000000,0000.09,0000.02,0000.02,0000.15,-000.30,0000.15,-000.91,-000.88,0000.01,17.0,23.5,,00.0,0656.5,31.0
2021-02-08T16:20:00Z,00000200,01000000,0000.07,0000.33,0000.24,-000.28,-000.04,0000.32,-000.39,-000.30,-000.74,17.0,23.6,,00.0,0656.6,31.0
2021-02-08T16:21:00Z,00000200,01000000,0000.71,0000.39,-000.09,0000.05,0000.08,-000.01,-000.46,-000.65,-000.41,17.0,23.6,,00.0,0656.7,31.0
2021-02-08T16:22:00Z,00000200,01000000,-000.54,0000.39,0000.39,-000.14,-000.04,-000.01,-000.56,-000.29,-000.02,17.0,23.5,,00.0,0656.7,31.0
2021-02-08T16:23:00Z,00000200,01000000,0000.43,-000.03,0000.46,0000.36,0000.01,0000.08,-000.20,-000.45,-000.56,16.9,23.5,,00.0,0656.8,31.0
2021-02-08T16:24:00Z,00000200,01000000,0000.31,0000.11,0000.41,0000.37,-000.35,0000.18,-000.32,-000.29,-000.07,16.9,23.5,,00.0,0656.8,31.0
2021-02-08T16:25:00Z,00000200,01000000,0000.43,0000.06,0000.38,0000.40,-000.18,0000.12,-000.48,-000.12,-000.01,16.8,23.5,,00.0,0656.9,31.0
2021-02-08T16:26:00Z,00000200,01000000,0000.48,0000.65,0000.30,-000.40,-000.32,0000.26,0000.13,-000.16,-000.40,16.8,23.5,,00.0,0656.9,31.0
2021-02-08T16:27:00Z,00000200,01000000,0000.32,-000.07,0000.20,0000.56,-000.04,0000.19,0000.02,0000.05,0000.11,16.8,23.5,,00.0,0656.9,31.0
2021-02-08T16:28:00Z,00000200,01000000,0000.17,0000.34,0000.38,0000.07,-000.00,0000.25,-000.05,-000.04,0000.12,16.8,23.5,,00.0,0656.9,31.0
2021-02-08T16:29:00Z,00000200,01000000,0000.73,0000.34,0000.20,0000.03,-000.02,0000.07,0000.24,0000.12,-000.07,16.8,23.5,,00.0,0656.9,31.0
2021-02-08T16:30:00Z,00000200,01000000,0000.61,0000.21,0000.11,0000.15,-000.26,0000.07,0000.19,0000.43,0000.37,16.8,23.5,,00.0,0656.9,31.0
2021-02-08T16:31:00Z,00000200,01000000,0000.38,0000.38,-000.13,0000.28,0000.02,0000.06,0000.27,0000.16,0000.17,16.8,23.5,,00.0,0656.9,31.0
2021-02-08T16:32:00Z,00000200,01000000,0000.03,0000.24,0000.45,0000.39,-000.02,0000.11,-000.04,0000.39,-000.01,16.8,23.5,,00.0,0656.9,31.0
2021-02-08T16:33:00Z,00000200,01000000,-000.14,0000.04,0000.28,0000.25,-000.27,0000.17,0000.29,0000.00,0000.22,16.9,23.5,,00.0,0657.0,31.0
2021-02-08T16:34:00Z,00000200,01000000,0000.46,0000.17,0000.35,-000.19,0000.13,0000.23,0000.17,0000.01,-000.00,16.8,23.5,,00.0,0656.9,31.0
2021-02-08T16:35:00Z,00000200,01000000,0000.54,0000.21,-000.09,0000.72,-000.20,0000.10,0000.02,-000.11,0000.29,16.8,23.5,,00.0,0656.9,31.0
2021-02-08T16:36:00Z,00000200,01000000,-000.30,0000.39,0000.04,0000.18,-000.33,-000.04,-000.01,0000.26,0000.05,16.8,23.5,,00.0,0656.9,31.0
2021-02-08T16:37:00Z,00000200,01000000,0000.35,0000.13,0000.46,0000.40,-000.04,0000.11,-000.05,-000.10,-000.10,16.8,23.5,,00.0,0656.9,31.0
2021-02-08T16:38:00Z,00000200,01000000,0000.34,0000.19,0000.35,0000.35,-000.20,0000.23,0000.09,0000.28,0000.11,16.8,23.5,,00.0,0656.9,31.0
2021-02-08T16:39:00Z,00000200,01000000,0000.23,0000.25,0000.15,0000.11,-000.17,0000.00,0000.18,0000.16,0000.18,16.7,23.5,,00.0,0656.9,31.0
2021-02-08T16:40:00Z,00000200,01000000,0000.49,0000.05,0000.23,-000.37,-000.10,0000.10,0000.08,-000.13,-000.29,16.7,23.5,,00.0,0656.9,31.0
2021-02-08T16:41:00Z,00000200,01000000,0000.45,0000.05,0000.37,-000.12,-000.16,0000.10,0000.13,0000.27,0000.04,16.7,23.4,,00.0,0656.8,31.0
2021-02-08T16:42:00Z,00000200,01000000,0000.62,0000.25,0000.27,0000.84,-000.17,0000.03,0000.06,-000.23,0000.22,16.6,23.4,,00.0,0656.8,31.0
2021-02-08T16:43:00Z,00000200,01000000,0000.46,0000.29,0000.11,-000.11,-000.14,0000.04,-000.14,0000.16,-000.09,16.6,23.4,,00.0,0656.8,31.0
2021-02-08T16:44:00Z,00000200,01000000,-000.03,0000.03,0000.43,0000.13,0000.09,0000.09,0000.18,0000.18,0000.25,16.6,23.4,,00.0,0656.8,31.0
2021-02-08T16:45:00Z,00000200,01000000,0000.57,-000.05,0000.23,0000.43,0000.02,0000.15,0000.26,-000.27,-000.02,16.6,23.4,,00.0,0656.8,31.0
2021-02-08T16:46:00Z,00000200,01000000,0000.08,0000.31,0000.39,0000.09,-000.04,0000.65,0000.13,0000.12,0000.33,16.7,23.4,,00.0,0656.8,31.0
2021-02-08T16:47:00Z,00000200,01000000,0000.17,0000.27,-000.01,0000.67,-000.01,0000.00,-000.06,0000.24,-000.02,16.7,23.5,,00.0,0656.8,31.0
2021-02-08T16:48:00Z,00000200,01000000,0000.51,-000.05,0000.38,0000.05,-000.32,0000.22,0000.05,-000.09,0000.06,16.7,23.4,,00.0,0656.8,31.0
2021-02-08T16:49:00Z,00000200,01000000,0000.11,0000.24,0000.03,0000.27,0000.03,-000.01,-000.24,0000.10,-000.36,16.8,23.5,,00.0,0656.8,31.0
2021-02-08T16:50:00Z,00000200,01000000,0000.64,0000.06,0000.19,0000.49,0000.03,0000.18,0000.21,-000.15,0000.04,16.7,23.5,,00.0,0656.8,31.0
2021-02-08T16:51:00Z,00000200,01000000,0000.35,0000.20,0000.45,0000.17,0000.11,0000.10,-000.22,-000.31,-000.28,16.7,23.4,,00.0,0656.9,31.0
2021-02-08T16:52:00Z,00000200,01000000,-000.17,0000.09,0000.36,0000.44,0000.04,-000.21,-000.10,0000.32,-000.14,16.7,23.4,,00.0,0656.9,31.0
2021-02-08T16:53:00Z,00000200,01000000,0000.03,0000.16,0000.40,-000.01,-000.10,0000.14,-000.09,-000.36,0000.42,16.7,23.4,,00.0,0656.9,31.0
2021-02-08T16:54:00Z,00000200,01000000,0000.72,-000.12,0000.27,0000.11,-000.02,-000.06,0000.21,0000.36,-000.08,16.6,23.4,,00.0,0656.9,31.0
2021-02-08T16:55:00Z,00000200,01000000,0000.09,0000.26,-000.07,0000.39,-000.11,0000.17,-000.28,0000.20,0000.02,16.6,23.4,,00.0,0656.9,31.0
2021-02-08T16:56:00Z,00000200,01000000,0000.18,0000.02,0000.34,0000.14,-000.11,0000.47,0000.01,-000.31,-000.13,16.6,23.4,,00.0,0656.9,31.0
2021-02-08T16:57:00Z,00000200,41000000,,,,,,,0003.03,0002.68,0002.05,16.6,23.4,,00.0,0656.9,31.0
2021-02-08T16:58:00Z,00000200,61000000,,,,,,,-001.07,-001.26,-000.67,16.2,23.5,,00.0,0656.0,31.0
2021-02-08T16:59:00Z,00000200,21000000,,,,,,,-000.74,-000.29,-000.63,16.2,23.6,,00.0,0656.0,31.0
